Weather History for Pullman, WA

Change the Weather History Date:

Tuesday, October 22, 2013

  Actual Average Record
Temperature  
Mean Temperature 55 °F 45 °F  
Max Temperature 69 °F 56 °F 79 °F (2003)
Min Temperature 40 °F 35 °F 22 °F (1978)
Degree Days  
Heating Degree Days 10 20  
Month to date heating degree days 430 353  
Since 1 July heating degree days 649 714  
Cooling Degree Days 0 0  
Month to date cooling degree days 0 0  
Year to date cooling degree days 334 212  
Growing Degree Days 4 (Base 50)    
Moisture  
Dew Point 39 °F    
Average Humidity 59    
Maximum Humidity 83    
Minimum Humidity 35    
Precipitation  
Precipitation 0.00 in 0.05 in 0.62 in (1954)
Month to date precipitation 0.13 0.87  
Year to date precipitation 11.67 12.56  
Sea Level Pressure  
Sea Level Pressure 30.19 in    
Wind  
Wind Speed 6 mph (East)    
Max Wind Speed 18 mph    
Max Gust Speed 23 mph    
Visibility 8 miles    
Events      
T = Trace of Precipitation, MM = Missing Value Source: NWS Daily Summary

Daily Weather History Graph

Daily Weather History Graph

Search for Another Location

Airport:

Trip Planner

Search our weather history database for the weather conditions in past years. The results will help you decide how hot, cold, wet, or windy it might be!

Date:

Astronomy

Oct. 22, 2013 Rise Set
Actual Time 7:16 AM PDT 5:48 PM PDT
Civil Twilight 6:45 AM PDT 6:19 PM PDT
Nautical Twilight 6:10 AM PDT 6:54 PM PDT
Astronomical Twilight 5:35 AM PDT 7:29 PM PDT
Moon 8:22 PM PDT (10/22) 10:58 AM PDT (10/22)
Length of Visible Light 11h 33m
Length of Day
10h 31m
Waning Gibbous, 86% of the Moon is Illuminated
Oct 22
Waning Gibbous
Oct 26
Last Quarter
Nov 3
New
Nov 9
First Quarter
Nov 17
Full

Hourly Weather History & Observations

Time (PDT) Temp. Windchill Dew Point Humidity Pressure Visibility Wind Dir Wind Speed Gust Speed Precip Events Conditions
12:53 AM 46.9 °F - 37.9 °F 71% 30.22 in 10.0 mi NE 4.6 mph - N/A   Clear
1:53 AM 46.0 °F 43.9 °F 37.9 °F 73% 30.21 in 9.0 mi NE 4.6 mph - N/A   Clear
2:53 AM 46.9 °F - 39.0 °F 74% 30.20 in 8.0 mi East 8.1 mph - N/A   Clear
3:53 AM 46.0 °F 41.4 °F 39.0 °F 76% 30.20 in 8.0 mi East 9.2 mph - N/A   Clear
4:53 AM 45.0 °F 39.7 °F 39.0 °F 80% 30.21 in 8.0 mi East 10.4 mph - N/A   Clear
5:53 AM 44.1 °F 39.0 °F 39.0 °F 82% 30.22 in 8.0 mi East 9.2 mph - N/A   Clear
6:53 AM 46.0 °F 41.4 °F 39.0 °F 76% 30.23 in 8.0 mi East 9.2 mph - N/A   Clear
7:53 AM 45.0 °F 38.9 °F 39.9 °F 82% 30.23 in 7.0 mi East 12.7 mph - N/A   Clear
8:53 AM 50.0 °F - 41.0 °F 71% 30.24 in 7.0 mi East 15.0 mph - N/A   Clear
9:53 AM 53.1 °F - 41.0 °F 64% 30.24 in 8.0 mi East 17.3 mph - N/A   Clear
10:53 AM 57.0 °F - 42.1 °F 57% 30.23 in 8.0 mi East 12.7 mph - N/A   Clear
11:53 AM 61.0 °F - 42.1 °F 50% 30.21 in 8.0 mi ESE 9.2 mph - N/A   Clear
12:53 PM 64.9 °F - 42.1 °F 43% 30.18 in 9.0 mi East 8.1 mph - N/A   Clear
1:53 PM 66.0 °F - 41.0 °F 40% 30.17 in 9.0 mi ESE 4.6 mph - N/A   Clear
2:53 PM 68.0 °F - 41.0 °F 37% 30.14 in 9.0 mi SE 6.9 mph - N/A   Clear
3:53 PM 68.0 °F - 39.9 °F 36% 30.14 in 9.0 mi ESE 4.6 mph - N/A   Clear
4:53 PM 68.0 °F - 39.0 °F 35% 30.13 in 9.0 mi East 3.5 mph - N/A   Clear
5:53 PM 59.0 °F - 37.9 °F 46% 30.14 in 8.0 mi Calm Calm - N/A   Clear
6:53 PM 52.0 °F - 36.0 °F 54% 30.15 in 8.0 mi Calm Calm - N/A   Clear
7:53 PM 46.0 °F - 35.1 °F 66% 30.16 in 8.0 mi Calm Calm - N/A   Clear
8:53 PM 45.0 °F - 35.1 °F 68% 30.16 in 8.0 mi Calm Calm - N/A   Clear
9:53 PM 41.0 °F - 34.0 °F 76% 30.16 in 8.0 mi Calm Calm - N/A   Clear
10:53 PM 42.1 °F - 36.0 °F 79% 30.15 in 8.0 mi Calm Calm - N/A   Clear
11:53 PM 45.0 °F - 37.0 °F 74% 30.14 in 9.0 mi Calm Calm - N/A   Clear